Content
SEND FEEDBACK

Daily
Averages
Monthly
Summary
French Polynesia

PAPEETE, FRENCH POLYNESIA


Home > Oceania > French Polynesia
Elevation: 7 feet     Latitude: 17 33S     Longitude: 149 36W

WEATHER
 
SELECT A DAY
Number of Records: 208,298;   Date Range: 6/30/96 - 7/30/14
 
SHARE

PRINT THIS DATA

[ ← Previous Day ]
WEATHER ALMANAC - JANUARY 20, 2014
[ Next Day → ]
[ °C ]   °F
Weather ElementAverageHighLow
Temperature82.7 °F88 °F (2:00 pm)77 °F (2:30 am)
Dewpoint71.2 °F75.2 °F (9:30 am)68 °F (7:30 pm)
Humidity67.5 %83 % (2:30 am)48 % (5:00 pm)
Barometer29.89 in29.95 in (10:30 pm)29.83 in (2:30 am)
Wind Speed7.4 mph17.3 mph (1:00 pm)
Wind Gust26.5 mph (2:30 pm)
Weather ElementAverage
Visibility8.5 mi
Wind DirectionNE (48.7 °)

Weather ElementTotal
Precipitation---
Cooling Degree Days17.5 (Base 65)
Growing Degree Days32.5 (Base 50)
Averaged from 54 records on January 20, 2014
WEATHER CONDITIONS BREAKOUT
WIND DIRECTION BREAKOUT
WEATHER BY HOUR - JANUARY 20, 2014
[ °C ]   °F
Local TimeTemperatureDewpointHumidityBarometerVisibilityWind DirectionWind SpeedGust SpeedPrecipitationEventsConditions
12:30 AM78.8 °F71.6 °F78 %29.86 in6.2 miEast (80°)3.5 mphMostly Cloudy
1:00 AM78.8 °F71.6 °F78 %29.86 in6.2 miEast (80°)3.5 mphMostly Cloudy
1:30 AM78.8 °F71.6 °F78 %29.86 in6.2 miENE (60°)4.6 mphMostly Cloudy
2:00 AM78.0 °F69.0 °F67 %29.86 in37.0 miEast (80°)4.6 mphClear
2:30 AM77.0 °F71.6 °F83 %29.83 in6.2 miEast (100°)2.3 mphMostly Cloudy
3:00 AM77.0 °F71.6 °F83 %29.83 in6.2 miCalmMostly Cloudy
3:30 AM77.0 °F71.6 °F83 %29.86 in6.2 miVariable2.3 mph
4:00 AM77.0 °F71.6 °F83 %29.86 in6.2 miVariable1.2 mph
4:30 AM77.0 °F69.8 °F78 %29.86 in6.2 miESE (110°)1.2 mph
5:00 AM77.0 °F70.0 °F74 %29.88 in37.0 miESE (110°)3.5 mphClear
5:00 AM77.0 °F69.8 °F78 %29.86 in6.2 miESE (110°)3.5 mph
5:30 AM77.0 °F69.8 °F78 %29.86 in6.2 miVariable2.3 mph
6:00 AM77.0 °F69.8 °F78 %29.89 in6.2 miSouth (180°)3.5 mphScattered Clouds
6:30 AM78.8 °F69.8 °F74 %29.92 in6.2 miVariable2.3 mphScattered Clouds
7:00 AM80.6 °F69.8 °F70 %29.92 in6.2 miCalmScattered Clouds
7:30 AM80.6 °F69.8 °F70 %29.92 in6.2 miVariable2.3 mphMostly Cloudy
8:00 AM83.0 °F71.0 °F59 %29.94 in19.0 miNorth (10°)3.5 mphPartly Cloudy
8:00 AM84.2 °F71.6 °F66 %29.92 in6.2 miVariable3.5 mphMostly Cloudy
8:30 AM86.0 °F69.8 °F58 %29.92 in6.2 miNE (40°)6.9 mphMostly Cloudy
9:00 AM86.0 °F71.6 °F62 %29.92 in6.2 miNE (50°)9.2 mphScattered Clouds
9:30 AM86.0 °F75.2 °F70 %29.92 in6.2 miNE (50°)12.7 mphScattered Clouds
10:00 AM86.0 °F73.4 °F66 %29.92 in6.2 miNE (50°)16.1 mphScattered Clouds
10:30 AM86.0 °F73.4 °F66 %29.92 in6.2 miENE (60°)16.1 mphScattered Clouds
11:00 AM87.0 °F73.0 °F54 %29.92 in19.0 miENE (60°)15.0 mphScattered Clouds
11:00 AM86.0 °F73.4 °F66 %29.92 in6.2 miENE (60°)15.0 mphScattered Clouds
11:30 AM86.0 °F71.6 °F62 %29.92 in6.2 miENE (60°)13.8 mphScattered Clouds
12:00 PM86.0 °F73.4 °F66 %29.89 in6.2 miNE (50°)16.1 mphScattered Clouds
12:30 PM87.8 °F73.4 °F62 %29.89 in6.2 miENE (60°)15.0 mphScattered Clouds
1:00 PM87.8 °F75.2 °F66 %29.89 in6.2 miNE (50°)17.3 mphPartly Cloudy
1:30 PM87.8 °F73.4 °F62 %29.86 in6.2 miNE (50°)17.3 mphPartly Cloudy
2:00 PM88.0 °F73.0 °F53 %29.88 in19.0 miENE (60°)13.8 mphScattered Clouds
2:00 PM87.8 °F73.4 °F62 %29.86 in6.2 miENE (60°)13.8 mphPartly Cloudy
2:30 PM87.8 °F71.6 °F58 %29.86 in6.2 miEast (80°)12.7 mph26.5 mphPartly Cloudy
3:00 PM87.8 °F75.2 °F66 %29.86 in6.2 miNE (50°)13.8 mphPartly Cloudy
3:30 PM86.0 °F73.4 °F66 %29.86 in6.2 miNE (50°)15.0 mphPartly Cloudy
4:00 PM86.0 °F71.6 °F62 %29.86 in6.2 miNE (50°)17.3 mphPartly Cloudy
4:30 PM86.0 °F71.6 °F62 %29.86 in6.2 miNE (40°)11.5 mphPartly Cloudy
5:00 PM87.0 °F70.0 °F48 %29.87 in19.0 miEast (80°)4.6 mphScattered Clouds
5:00 PM87.8 °F69.8 °F55 %29.86 in6.2 miVariable4.6 mphPartly Cloudy
5:30 PM86.0 °F71.6 °F62 %29.86 in6.2 miNNE (30°)6.9 mphPartly Cloudy
6:00 PM86.0 °F71.6 °F62 %29.89 in6.2 miNE (40°)10.4 mphPartly Cloudy
6:30 PM84.2 °F71.6 °F66 %29.89 in6.2 miNE (40°)8.1 mphScattered Clouds
7:00 PM84.2 °F69.8 °F62 %29.89 in6.2 miENE (70°)9.2 mphScattered Clouds
7:30 PM84.2 °F68.0 °F58 %29.92 in6.2 miENE (60°)6.9 mphScattered Clouds
8:00 PM83.0 °F68.0 °F52 %29.92 in12.0 miENE (70°)4.6 mphScattered Clouds
8:00 PM82.4 °F68.0 °F62 %29.92 in6.2 miENE (70°)4.6 mphPartly Cloudy
8:30 PM82.4 °F69.8 °F66 %29.92 in6.2 miVariable2.3 mphPartly Cloudy
9:00 PM80.6 °F69.8 °F70 %29.92 in6.2 miVariable2.3 mphPartly Cloudy
9:30 PM80.6 °F69.8 °F70 %29.92 in6.2 miVariable2.3 mphPartly Cloudy
10:00 PM78.8 °F69.8 °F74 %29.92 in6.2 miVariable3.5 mphPartly Cloudy
10:30 PM80.6 °F71.6 °F74 %29.95 in6.2 miENE (60°)8.1 mphPartly Cloudy
11:00 PM79.0 °F70.0 °F67 %29.95 in12.0 miNNE (30°)1.2 mphScattered Clouds
11:00 PM78.8 °F69.8 °F74 %29.95 in6.2 miVariable1.2 mphPartly Cloudy
11:30 PM78.8 °F69.8 °F74 %29.95 in6.2 miSE (130°)2.3 mphPartly Cloudy
Hourly data recorded from NTAA, located miles away from Papeete, French Polynesia







STORIES FROM OUR PARTNERS